Overview Statistics Trail Chart Weather Telemetry Raw packets
 

This is the latest recevied weather packets stored in our database for station/object VK2EHQ. If no packets are shown the sender has not sent any weather packets the latest 10 day(s).

<< 43 44 45 46 47 48 49 >>
Time Temp. Humidity Pressure Rain* Wind** Luminosity Snow
1787887776 20° C 57% 1025.9 hPa 0 mm - - -
1787887176 19.44° C 58% 1025.9 hPa 0 mm - - -
1787886576 19.44° C 58% 1026 hPa 0 mm - - -
1787885976 18.89° C 60% 1026.2 hPa 0 mm - - -
1787885376 18.89° C 60% 1026.4 hPa 0 mm - - -
1787884776 18.89° C 64% 1026.5 hPa 0 mm - - -
1787884176 18.89° C 66% 1026.6 hPa 0 mm - - -
1787883576 18.33° C 66% 1026.9 hPa 0 mm - - -
1787882975 18.33° C 68% 1027.1 hPa 0 mm - - -
1787882375 17.78° C 67% 1027.1 hPa 0 mm - - -
1787881775 18.33° C 68% 1027.2 hPa 0 mm - - -
1787881175 17.78° C 68% 1027.4 hPa 0 mm - - -
1787880575 17.78° C 68% 1027.5 hPa 0 mm - - -
1787879975 17.22° C 68% 1027.6 hPa 0 mm - - -
1787879375 17.78° C 69% 1027.7 hPa 0 mm - - -
1787878775 17.78° C 69% 1027.8 hPa 0 mm - - -
1787878175 17.22° C 69% 1027.9 hPa 0 mm - - -
1787877574 17.22° C 68% 1027.9 hPa 0 mm - - -
1787876975 16.67° C 66% 1028 hPa 0 mm - - -
1787876374 16.11° C 65% 1028.1 hPa 0 mm - - -
1787875774 16.11° C 62% 1028.2 hPa 0 mm - - -
1787875175 15.56° C 58% 1028.2 hPa 0 mm - - -
1787874574 15° C 55% 1028.2 hPa 0 mm - - -
1787873975 15° C 52% 1028.2 hPa 0 mm - - -
1787872774 14.44° C 51% 1028.3 hPa 0 mm - - -

* Rain latest hour (hover to see other rain measurements)
** Current wind speed in m/s (hover to see current wind gust speed)